User: anonymous   Login
Location: Unspecified
(0.0000°N, 0.0000°E)
Time: 02:06:03
(UTC+00:00)
Language:

PAYLOAD G - Orbit

View from above orbital plane
View from above orbital plane
View from above satellite
View from above satellite

Ground track
Ground track

The orbit data is extracted from the following two-line orbital elements,

1 27846U 03031G   18055.26490115 +.00000040 +00000-0 +37834-4 0  9994
2 27846 098.6839 064.2249 0008441 317.2628 042.7892 14.22153312760149
Epoch (UTC): 24 February 2018 06:21:27
Eccentricity: 0.0008441
inclination: 98.6839°
perigee height: 812 km
apogee height: 824 km
right ascension of ascending node: 64.2249°
argument of perigee: 317.2628°
revolutions per day: 14.22153312
mean anomaly at epoch: 42.7892°
orbit number at epoch: 76014

The dashed part of the orbit path shows where the satellite is in the earth's shadow,  

DLR